Epoch 2009 Nov. 25.0 TT = JDT 2455160.5 T 2009 Dec. 1.94789 TT MPC q 5.2349526 (2000.0) P Q n 0.05248661 Peri. 3.69708 -0.82590157 -0.55527596 a 7.0648623 Node 142.03417 +0.51312859 -0.81211513 e 0.2590156 Incl. 9.14275 +0.23363573 -0.17926967 P 18.8 From 90 observations 2008 Dec. 30-2011 May 3, mean residual 0".5.
m1 = 9.5 + 5 logΔ + 10.0 log r